カタログに戻る

FENGYUN 1C DEB

運用中SSO
NORAD 30805·DEBRIS·🇨🇳 China

打ち上げ May 10, 1999 から Taiyuan Satellite Launch Center

Loading…

次のパス (今後24時間)

TLE

最新Source: Space-Track

元期: Sep 14, 2026, 21:56 UTC

1 30805U 99025AUP 26257.91390632  .00000404  00000-0  27951-3 0  9991
2 30805  98.7966 296.7366 0071447 232.8632 303.0039 14.03427119998333

AllMySatでFENGYUN 1C DEBをリアルタイム追跡

Download on the App Store